User: anonymous   Login
Location: Unspecified
(0.0000°N, 0.0000°E)
Time: 05:26:54
(UTC+00:00)
Language:

PAYLOAD E - Orbit

View from above orbital plane
View from above orbital plane
View from above satellite
View from above satellite

Ground track
Ground track

The orbit data is extracted from the following two-line orbital elements,

1 27059U 01058E   24170.90866414  .00000040  00000-0  16418-3 0  9996
2 27059  82.5413 319.1044 0002934 100.0407 260.1015 12.61529014 34744
Epoch (UTC): 18 June 2024 21:48:28
Eccentricity: 0.0002934
inclination: 82.5413°
perigee height: 1414 km
apogee height: 1419 km
right ascension of ascending node: 319.1044°
argument of perigee: 100.0407°
revolutions per day: 12.61529014
mean anomaly at epoch: 260.1015°
orbit number at epoch: 3474

The dashed part of the orbit path shows where the satellite is in the earth's shadow,  

DLR